QPF
0.00 0.00 0.00 0.00 0.00 0.00 0.00 0.00 0.00 0.00 0.00 0.00 0.00 0.00 0.00 0.01 0.01 0.01 0.00 0.00 0.00 0.00 0.00 0.00 0.00 0.00 0.00 0.01 0.02 0.06 0.09 0.14 0.12 0.33 0.75 0.56 0.35 0.12 0.09 0.05 0.03 0.00 0.00
0.00 0.00 0.00 0.00 0.00 0.00 0.00 0.00 0.00 0.00 0.00 0.00 0.00 0.00 0.01 0.01 0.01 0.01 0.00 0.00 0.00 0.00 0.00 0.00 0.00 0.00 0.01 0.01 0.02 0.03 0.05 0.10 0.13 0.07 0.27 0.29 0.14 0.14 0.17 0.19 0.14 0.12 0.02
0.00 0.00 0.00 0.00 0.00 0.00 0.00 0.00 0.00 0.00 0.00 0.00 0.00 0.01 0.02 0.02 0.01 0.00 0.00 0.01 0.01 0.00 0.00 0.00 0.01 0.01 0.01 0.01 0.02 0.02 0.04 0.09 0.13 0.06 0.05 0.02 0.07 0.18 0.13 0.23 0.44 0.46 0.37
0.00 0.00 0.00 0.00 0.00 0.00 0.00 0.00 0.00 0.00 0.00 0.00 0.01 0.02 0.02 0.02 0.00 0.00 0.00 0.00 0.00 0.00 0.00 0.00 0.01 0.02 0.02 0.02 0.03 0.03 0.05 0.08 0.10 0.06 0.06 0.04 0.02 0.04 0.09 0.09 0.20 0.37 0.59
0.00 0.00 0.00 0.00 0.00 0.00 0.00 0.00 0.00 0.00 0.00 0.01 0.01 0.01 0.01 0.00 0.00 0.00 0.00 0.00 0.00 0.00 0.00 0.00 0.00 0.00 0.00 0.02 0.04 0.04 0.06 0.08 0.11 0.08 0.08 0.07 0.02 0.01 0.02 0.02 0.03 0.09 0.05
0.00 0.00 0.00 0.00 0.00 0.00 0.00 0.00 0.00 0.00 0.01 0.00 0.00 0.00 0.00 0.00 0.00 0.00 0.00 0.00 0.00 0.00 0.00 0.00 0.00 0.01 0.01 0.00 0.00 0.01 0.06 0.09 0.10 0.09 0.07 0.08 0.06 0.02 0.01 0.02 0.01 0.04 0.01
0.00 0.00 0.00 0.00 0.00 0.00 0.00 0.00 0.00 0.00 0.00 0.01 0.00 0.00 0.00 0.00 0.00 0.00 0.00 0.00 0.00 0.00 0.00 0.00 0.00 0.01 0.02 0.03 0.02 0.01 0.03 0.06 0.10 0.12 0.09 0.08 0.09 0.05 0.03 0.02 0.00 0.00 0.00
0.00 0.00 0.00 0.00 0.00 0.00 0.00 0.00 0.00 0.00 0.00 0.00 0.00 0.00 0.00 0.00 0.00 0.00 0.00 0.01 0.00 0.00 0.00 0.00 0.00 0.01 0.03 0.06 0.10 0.10 0.06 0.02 0.02 0.04 0.05 0.10 0.08 0.09 0.04 0.05 0.02 0.01 0.01
0.00 0.00 0.00 0.00 0.00 0.00 0.00 0.00 0.00 0.00 0.00 0.00 0.00 0.00 0.00 0.00 0.00 0.00 0.03 0.04 0.02 0.01 0.00 0.01 0.03 0.04 0.07 0.16 0.13 0.14 0.13 0.08 0.05 0.00 0.00 0.02 0.04 0.08 0.08 0.04 0.01 0.02 0.00
0.00 0.00 0.00 0.00 0.00 0.00 0.00 0.00 0.00 0.00 0.01 0.00 0.00 0.01 0.00 0.00 0.00 0.01 0.11 0.16 0.03 0.02 0.05 0.11 0.09 0.08 0.14 0.26 0.25 0.16 0.13 0.18 0.19 0.11 0.07 0.04 0.01 0.00 0.01 0.00 0.00 0.01 0.02
0.00 0.00 0.00 0.00 0.00 0.00 0.00 0.00 0.00 0.00 0.00 0.01 0.01 0.00 0.00 0.00 0.00 0.03 0.17 0.18 0.05 0.03 0.08 0.07 0.09 0.20 0.12 0.10 0.16 0.24 0.31 0.39 0.37 0.29 0.15 0.07 0.03 0.01 0.01 0.01 0.01 0.01 0.01
0.00 0.00 0.00 0.00 0.00 0.00 0.00 0.00 0.00 0.01 0.02 0.02 0.01 0.00 0.00 0.00 0.00 0.03 0.08 0.18 0.14 0.43 0.41 0.15 0.13 0.16 0.11 0.07 0.04 0.07 0.11 0.15 0.14 0.16 0.17 0.23 0.16 0.12 0.14 0.13 0.12 0.08 0.05
0.00 0.00 0.00 0.00 0.00 0.00 0.00 0.00 0.00 0.01 0.01 0.00 0.00 0.00 0.00 0.00 0.00 0.02 0.06 0.10 0.29 0.44 0.34 0.64 0.62 0.23 0.15 0.11 0.12 0.11 0.09 0.08 0.07 0.05 0.05 0.09 0.10 0.12 0.08 0.04 0.05 0.07 0.06
0.01 0.03 0.05 0.04 0.01 0.00 0.00 0.00 0.00 0.00 0.00 0.00 0.00 0.00 0.00 0.00 0.00 0.00 0.03 0.06 0.18 0.43 0.41 0.63 0.50 0.30 0.14 0.08 0.03 0.03 0.02 0.02 0.02 0.02 0.04 0.03 0.02 0.02 0.02 0.01 0.00 0.05 0.07
0.38 0.34 0.14 0.05 0.00 0.00 0.00 0.00 0.00 0.00 0.00 0.00 0.00 0.00 0.00 0.00 0.00 0.00 0.00 0.02 0.07 0.16 0.32 0.21 0.09 0.11 0.11 0.12 0.11 0.11 0.07 0.07 0.06 0.05 0.04 0.03 0.01 0.02 0.01 0.01 0.02 0.05 0.08
0.55 0.10 0.02 0.00 0.00 0.00 0.00 0.00 0.00 0.00 0.00 0.00 0.00 0.00 0.00 0.00 0.00 0.00 0.00 0.00 0.01 0.05 0.09 0.14 0.09 0.04 0.01 0.01 0.00 0.00 0.03 0.06 0.06 0.06 0.07 0.07 0.10 0.08 0.06 0.04 0.06 0.07 0.10
0.01 0.01 0.01 0.00 0.00 0.00 0.00 0.00 0.00 0.00 0.00 0.00 0.00 0.00 0.00 0.00 0.00 0.00 0.00 0.00 0.00 0.00 0.03 0.03 0.03 0.05 0.05 0.04 0.03 0.03 0.02 0.03 0.02 0.01 0.01 0.02 0.02 0.04 0.05 0.03 0.02 0.03 0.02
0.01 0.02 0.00 0.00 0.00 0.00 0.00 0.01 0.01 0.00 0.03 0.00 0.00 0.00 0.00 0.00 0.00 0.00 0.00 0.00 0.00 0.00 0.00 0.00 0.00 0.00 0.01 0.02 0.03 0.03 0.02 0.03 0.03 0.01 0.02 0.02 0.02 0.03 0.03 0.03 0.02 0.01 0.00
0.03 0.01 0.00 0.00 0.01 0.01 0.01 0.00 0.00 0.02 0.13 0.07 0.00 0.00 0.00 0.00 0.00 0.00 0.00 0.00 0.00 0.00 0.00 0.00 0.00 0.00 0.00 0.00 0.00 0.00 0.00 0.00 0.00 0.00 0.00 0.00 0.00 0.01 0.03 0.03 0.02 0.02 0.03
0.14 0.24 0.15 0.09 0.24 0.15 0.02 0.07 0.06 0.03 0.03 0.00 0.00 0.00 0.00 0.00 0.00 0.00 0.00 0.00 0.00 0.00 0.00 0.00 0.00 0.00 0.00 0.00 0.00 0.00 0.00 0.00 0.00 0.00 0.00 0.00 0.00 0.00 0.00 0.00 0.01 0.02 0.03
0.23 0.40 0.40 0.17 0.05 0.07 0.05 0.15 0.29 0.31 0.02 0.00 0.00 0.00 0.00 0.00 0.00 0.00 0.00 0.00 0.00 0.00 0.00 0.00 0.00 0.00 0.00 0.00 0.00 0.00 0.00 0.00 0.00 0.00 0.00 0.00 0.00 0.00 0.00 0.00 0.00 0.00 0.00
0.10 0.05 0.07 0.09 0.01 0.03 0.11 0.39 0.19 0.03 0.00 0.00 0.00 0.00 0.00 0.00 0.00 0.00 0.00 0.00 0.00 0.00 0.00 0.00 0.00 0.00 0.00 0.00 0.00 0.00 0.00 0.00 0.00 0.00 0.00 0.00 0.00 0.00 0.00 0.00 0.00 0.00 0.00
0.01 0.00 0.00 0.14 0.10 0.04 0.06 0.25 0.18 0.01 0.00 0.00 0.00 0.00 0.00 0.00 0.00 0.00 0.00 0.00 0.00 0.00 0.00 0.00 0.00 0.00 0.00 0.00 0.00 0.00 0.00 0.00 0.00 0.00 0.00 0.00 0.00 0.00 0.00 0.00 0.00 0.00 0.00
0.00 0.00 0.00 0.00 0.01 0.02 0.06 0.07 0.01 0.00 0.00 0.00 0.00 0.00 0.00 0.00 0.00 0.00 0.00 0.00 0.00 0.00 0.00 0.00 0.00 0.00 0.00 0.00 0.00 0.00 0.00 0.00 0.00 0.00 0.00 0.00 0.00 0.00 0.00 0.00 0.00 0.00 0.00
0.00 0.00 0.00 0.01 0.01 0.00 0.00 0.00 0.00 0.00 0.00 0.00 0.00 0.00 0.00 0.00 0.00 0.00 0.00 0.00 0.00 0.00 0.00 0.00 0.00 0.00 0.00 0.00 0.00 0.00 0.00 0.00 0.00 0.00 0.00 0.00 0.00 0.00 0.00 0.00 0.00 0.00 0.00
0.00 0.00 0.00 0.00 0.00 0.00 0.00 0.00 0.00 0.00 0.00 0.00 0.00 0.00 0.00 0.00 0.00 0.00 0.00 0.00 0.00 0.00 0.00 0.00 0.00 0.00 0.00 0.00 0.00 0.00 0.00 0.00 0.00 0.00 0.00 0.00 0.00 0.00 0.00 0.00 0.00 0.00 0.00
MSLP
1012.82 1013.18 1013.54 1013.84 1014.24 1014.53 1014.73 1014.75 1014.78 1014.70 1014.80 1014.81 1014.66 1014.44 1014.28 1014.14 1014.06 1013.90 1013.69 1013.30 1012.98 1012.64 1012.26 1011.79 1011.31 1011.18 1010.50 1009.87 1009.40 1009.20 1009.45 1009.54 1009.58 1008.87 1008.58 1006.36 1006.05 1006.97 1007.71 1008.01 1007.12 1006.93 1006.60
1012.71 1013.22 1013.67 1013.75 1014.08 1014.45 1014.62 1014.55 1014.63 1014.63 1014.66 1014.50 1014.23 1014.02 1013.90 1013.83 1013.72 1013.55 1013.26 1012.94 1012.51 1012.02 1011.56 1011.17 1010.55 1010.12 1009.74 1009.27 1008.58 1008.22 1008.27 1008.37 1008.40 1008.02 1007.84 1007.47 1007.04 1007.64 1007.19 1008.74 1008.64 1008.16 1005.93
1012.76 1013.36 1013.54 1013.58 1013.92 1014.21 1014.30 1014.30 1014.28 1014.28 1014.24 1014.03 1013.84 1013.68 1013.68 1013.64 1013.44 1013.15 1012.75 1012.55 1012.26 1011.70 1011.01 1010.30 1009.64 1009.48 1008.69 1008.28 1007.68 1007.09 1006.87 1006.98 1007.14 1006.94 1006.78 1007.00 1006.88 1007.01 1007.28 1008.08 1006.98 1006.63 1005.72
1012.61 1013.11 1013.28 1013.33 1013.66 1013.84 1013.92 1013.92 1013.84 1013.76 1013.72 1013.66 1013.59 1013.50 1013.30 1013.16 1012.94 1012.60 1012.53 1012.09 1011.62 1010.84 1010.04 1009.16 1008.39 1008.23 1007.56 1007.08 1006.38 1005.79 1005.78 1005.81 1005.90 1006.05 1005.77 1005.78 1005.76 1005.47 1006.19 1007.01 1007.12 1006.27 1006.09
1012.27 1012.91 1013.09 1013.22 1013.41 1013.48 1013.58 1013.64 1013.54 1013.51 1013.32 1013.41 1013.32 1013.18 1012.93 1012.64 1012.24 1012.35 1012.14 1011.76 1010.85 1009.56 1008.64 1007.56 1006.81 1006.34 1005.98 1005.58 1005.18 1004.53 1004.64 1004.66 1004.76 1004.72 1004.72 1004.78 1004.60 1004.64 1004.75 1005.03 1005.78 1005.53 1005.86
1012.04 1012.73 1012.90 1013.10 1013.14 1013.19 1013.33 1013.40 1013.35 1013.28 1013.22 1013.22 1013.14 1012.90 1012.64 1012.29 1012.24 1012.08 1011.88 1010.98 1009.63 1008.19 1006.70 1005.51 1004.95 1004.55 1004.10 1003.86 1003.42 1003.41 1003.54 1003.44 1003.53 1003.54 1003.45 1003.43 1003.34 1003.49 1003.56 1003.68 1003.88 1004.55 1005.06
1012.02 1012.47 1012.75 1012.91 1012.90 1012.93 1012.98 1013.02 1013.00 1012.97 1012.98 1013.05 1012.84 1012.60 1012.30 1012.15 1011.92 1011.84 1011.16 1009.90 1008.24 1006.33 1005.11 1004.24 1003.29 1002.81 1002.47 1002.15 1001.51 1001.52 1001.62 1001.89 1002.22 1002.52 1002.53 1002.28 1002.40 1002.46 1002.66 1002.98 1003.00 1003.62 1004.02
1011.89 1012.28 1012.48 1012.55 1012.53 1012.58 1012.66 1012.77 1012.71 1012.65 1012.70 1012.84 1012.56 1012.16 1012.12 1012.00 1011.81 1011.34 1010.38 1009.07 1006.94 1005.38 1004.00 1003.12 1002.37 1001.66 1001.43 1000.73 1000.36 1000.13 1000.01 1000.04 1000.67 1001.19 1001.55 1001.55 1001.36 1001.56 1001.97 1002.32 1002.76 1003.02 1003.25
1011.50 1011.86 1011.96 1012.04 1012.20 1012.32 1012.41 1012.50 1012.50 1012.49 1012.44 1012.42 1012.11 1012.00 1011.88 1011.80 1011.38 1010.85 1010.15 1008.56 1006.25 1004.32 1002.64 1001.97 1001.27 1000.64 999.99 999.58 999.61 999.36 999.06 998.84 998.88 999.62 1000.26 1000.67 1000.95 1001.38 1001.96 1002.49 1002.66 1003.07 1003.01
1011.00 1011.23 1011.40 1011.70 1012.02 1012.17 1012.24 1012.18 1012.21 1012.16 1012.14 1011.90 1011.79 1011.58 1011.64 1011.52 1011.07 1010.60 1010.17 1008.46 1006.46 1004.42 1002.52 1000.88 999.62 999.51 999.03 999.14 999.22 998.60 998.55 998.16 998.38 999.10 999.94 1000.30 1000.63 1001.08 1001.53 1001.88 1002.38 1002.76 1003.02
1010.46 1010.62 1011.08 1011.44 1011.72 1011.80 1011.75 1011.62 1011.68 1011.74 1011.82 1011.76 1011.46 1011.15 1011.42 1011.42 1011.06 1010.44 1010.20 1008.77 1007.24 1005.22 1003.59 1001.94 1000.87 999.84 999.42 999.16 999.02 998.74 998.84 998.10 998.32 998.80 999.43 999.81 1000.22 1000.67 1001.10 1001.52 1001.86 1002.28 1002.48
1010.09 1010.57 1010.88 1011.09 1011.27 1011.00 1011.08 1011.18 1011.05 1011.29 1011.69 1011.46 1011.21 1010.86 1010.89 1011.18 1011.01 1010.56 1010.00 1009.24 1007.94 1006.64 1004.56 1003.22 1002.51 1001.11 1000.32 1000.00 999.64 999.82 999.35 999.11 999.20 999.59 999.82 1000.03 1000.50 1000.82 1001.03 1001.27 1001.58 1001.76 1001.96
1010.16 1010.69 1011.00 1010.94 1010.72 1010.78 1010.62 1010.72 1010.78 1010.82 1011.24 1011.05 1010.87 1010.94 1011.12 1011.12 1011.05 1010.84 1010.19 1009.17 1008.35 1007.18 1006.02 1004.86 1003.65 1002.01 1001.22 1001.03 1000.86 1000.57 1000.31 1000.26 1000.38 1000.82 1001.31 1001.60 1001.69 1001.64 1001.47 1001.44 1001.41 1001.67 1001.94
1010.33 1010.87 1011.76 1012.15 1011.01 1010.62 1010.31 1010.23 1010.44 1010.06 1010.92 1011.16 1011.12 1011.37 1011.30 1011.34 1011.30 1011.24 1010.91 1009.80 1008.97 1007.71 1006.68 1005.92 1005.08 1004.14 1003.19 1002.74 1002.16 1002.12 1002.15 1002.19 1002.22 1002.36 1002.45 1002.62 1002.51 1002.50 1002.58 1002.52 1002.26 1002.05 1002.60
1011.15 1010.61 1010.87 1011.41 1010.41 1010.09 1010.15 1010.61 1010.39 1010.92 1010.98 1011.50 1011.67 1012.01 1012.10 1011.96 1011.86 1011.98 1011.58 1010.45 1009.70 1008.56 1007.31 1006.40 1005.51 1005.06 1004.54 1004.18 1003.92 1003.82 1003.74 1003.70 1003.49 1003.87 1003.53 1003.57 1003.55 1003.48 1003.54 1003.60 1003.53 1003.46 1003.60
1010.90 1011.01 1011.14 1010.54 1009.00 1008.42 1009.42 1010.79 1010.68 1011.58 1011.35 1011.96 1012.19 1012.32 1012.24 1012.10 1011.82 1011.31 1010.98 1010.35 1009.11 1008.56 1008.08 1007.71 1006.71 1006.15 1005.43 1005.09 1004.83 1004.92 1005.01 1004.96 1004.89 1005.08 1004.58 1004.72 1004.94 1004.57 1004.52 1004.34 1004.45 1004.72 1004.55
1010.36 1009.96 1008.73 1009.30 1008.78 1008.54 1008.88 1009.73 1011.15 1012.16 1012.13 1011.82 1012.53 1012.90 1012.48 1011.92 1011.65 1011.37 1010.94 1010.54 1009.74 1009.03 1008.95 1008.66 1008.25 1007.66 1007.04 1006.59 1005.93 1005.76 1005.59 1005.48 1005.52 1005.56 1005.68 1005.80 1005.42 1005.36 1005.18 1004.93 1005.02 1005.65 1005.70
1009.22 1009.15 1008.10 1008.26 1008.40 1008.34 1008.33 1009.14 1009.95 1011.07 1011.35 1011.74 1012.10 1012.66 1012.24 1011.97 1011.66 1011.26 1011.11 1010.48 1010.10 1009.83 1009.76 1009.59 1009.11 1008.76 1008.33 1007.89 1007.29 1006.88 1006.48 1006.32 1006.22 1006.33 1006.34 1006.26 1006.10 1005.84 1005.67 1005.68 1005.87 1005.81 1005.74
1008.91 1008.86 1008.50 1008.55 1008.56 1008.49 1008.82 1008.61 1009.29 1010.18 1010.44 1010.84 1011.16 1012.16 1011.82 1011.78 1011.79 1011.23 1011.26 1011.20 1010.97 1010.66 1010.54 1010.36 1010.19 1009.96 1009.61 1009.22 1008.52 1008.00 1007.80 1007.66 1007.52 1007.27 1007.08 1006.99 1006.86 1006.73 1006.59 1006.25 1006.16 1006.00 1005.74
1009.45 1008.95 1009.22 1009.27 1009.35 1009.48 1010.03 1009.88 1010.32 1010.44 1010.68 1010.57 1011.09 1011.33 1011.02 1011.00 1011.37 1011.26 1011.40 1011.40 1011.40 1011.39 1011.22 1010.95 1010.75 1010.50 1010.34 1010.26 1009.92 1009.54 1009.24 1008.97 1008.72 1008.43 1008.01 1007.50 1007.23 1007.16 1007.00 1006.86 1006.64 1006.50 1006.20
1009.24 1009.32 1008.00 1008.96 1010.12 1010.80 1010.65 1010.75 1010.41 1010.66 1011.03 1010.90 1011.09 1010.96 1011.22 1011.14 1011.12 1011.30 1011.41 1011.50 1011.61 1011.62 1011.46 1011.33 1011.24 1011.12 1010.71 1010.99 1011.04 1011.08 1010.95 1010.76 1010.43 1009.90 1009.31 1008.56 1008.01 1007.81 1007.63 1007.33 1006.98 1006.61 1006.46
1009.94 1008.88 1008.44 1009.43 1009.75 1010.43 1010.42 1010.21 1010.63 1010.72 1010.11 1010.29 1010.83 1010.92 1010.95 1010.89 1011.26 1011.45 1011.56 1011.74 1011.75 1011.75 1011.73 1011.74 1011.72 1011.73 1011.97 1012.32 1012.50 1012.52 1012.41 1012.16 1011.81 1011.46 1010.91 1010.03 1009.31 1008.76 1008.49 1008.08 1007.58 1007.28 1007.18
1009.10 1009.14 1009.47 1009.69 1009.78 1010.06 1009.86 1009.76 1010.91 1010.57 1010.03 1009.97 1010.24 1010.43 1010.74 1011.09 1011.39 1011.72 1011.92 1012.08 1012.04 1012.00 1011.91 1011.99 1012.15 1012.39 1012.62 1013.12 1013.58 1013.95 1014.01 1013.88 1013.24 1012.85 1012.16 1011.23 1010.46 1009.76 1009.26 1008.76 1008.48 1008.15 1008.05
1009.06 1009.22 1009.26 1009.43 1009.75 1009.86 1009.90 1009.78 1009.94 1009.89 1009.77 1009.90 1010.18 1010.60 1011.02 1011.34 1011.58 1012.04 1012.45 1012.61 1012.47 1012.38 1012.26 1012.40 1012.62 1013.20 1013.58 1013.91 1014.32 1014.69 1014.99 1014.84 1014.00 1013.76 1013.21 1012.14 1011.14 1010.40 1009.84 1009.61 1009.41 1009.26 1008.82
1009.61 1009.67 1009.52 1009.50 1009.39 1009.19 1009.37 1009.81 1009.37 1009.48 1009.80 1010.25 1010.56 1010.97 1011.24 1011.64 1011.98 1012.43 1012.85 1013.02 1012.80 1012.82 1012.74 1012.76 1013.13 1013.83 1014.31 1014.62 1014.99 1015.23 1015.35 1015.04 1014.58 1014.37 1013.38 1012.61 1011.58 1010.79 1010.30 1010.14 1009.96 1009.54 1009.26
1009.55 1009.59 1009.28 1008.91 1008.76 1008.71 1008.91 1009.24 1009.70 1010.16 1010.55 1010.94 1011.25 1011.53 1011.89 1012.27 1012.65 1013.18 1013.47 1013.63 1013.46 1013.33 1013.32 1013.36 1013.56 1013.59 1014.02 1014.83 1015.41 1015.72 1015.57 1015.33 1014.94 1014.34 1013.74 1012.46 1011.60 1011.14 1011.37 1011.15 1010.73 1010.41 1010.04
Thickness
5788 5784 5779 5774 5768 5762 5757 5753 5749 5746 5740 5736 5732 5728 5724 5721 5717 5714 5712 5711 5709 5709 5709 5710 5715 5714 5719 5725 5728 5726 5721 5721 5715 5735 5740 5766 5763 5761 5766 5764 5776 5776 5785
5783 5776 5769 5766 5761 5754 5748 5745 5741 5735 5731 5727 5724 5720 5715 5711 5707 5703 5701 5700 5698 5699 5699 5698 5702 5706 5707 5712 5718 5720 5719 5721 5718 5727 5733 5742 5750 5750 5754 5745 5746 5751 5779
5775 5766 5762 5759 5753 5746 5742 5738 5734 5728 5723 5719 5715 5709 5704 5699 5695 5692 5691 5687 5685 5685 5685 5685 5688 5688 5695 5699 5705 5711 5715 5716 5715 5721 5731 5735 5741 5738 5737 5733 5750 5752 5746
5768 5760 5755 5752 5747 5741 5736 5731 5727 5723 5716 5710 5706 5701 5696 5689 5685 5681 5675 5673 5671 5672 5673 5675 5678 5677 5682 5685 5693 5701 5704 5705 5708 5710 5724 5730 5737 5748 5743 5733 5738 5749 5745
5761 5752 5747 5744 5740 5735 5729 5724 5720 5714 5710 5703 5697 5692 5688 5684 5679 5667 5661 5656 5657 5661 5662 5665 5668 5670 5673 5677 5681 5691 5692 5694 5698 5707 5714 5720 5730 5737 5740 5744 5737 5742 5745
5754 5744 5740 5734 5730 5726 5720 5714 5709 5705 5699 5694 5687 5683 5678 5675 5665 5657 5647 5646 5649 5650 5654 5663 5664 5667 5671 5673 5678 5680 5684 5688 5692 5700 5712 5715 5725 5732 5738 5743 5746 5738 5735
5744 5737 5731 5725 5720 5716 5713 5706 5701 5695 5690 5683 5679 5675 5670 5664 5656 5645 5640 5640 5644 5647 5652 5658 5664 5667 5668 5672 5678 5679 5685 5690 5695 5699 5705 5716 5721 5728 5734 5735 5739 5737 5742
5734 5727 5722 5716 5711 5708 5704 5697 5692 5688 5681 5674 5671 5669 5662 5655 5644 5636 5631 5633 5641 5645 5652 5656 5660 5663 5665 5672 5676 5680 5687 5695 5700 5703 5708 5716 5723 5725 5731 5729 5730 5738 5746
5725 5718 5713 5708 5702 5699 5693 5688 5684 5679 5674 5668 5666 5661 5654 5645 5637 5628 5622 5624 5639 5648 5659 5659 5660 5663 5670 5674 5675 5678 5687 5698 5707 5709 5711 5714 5717 5718 5721 5720 5722 5722 5730
5716 5711 5707 5700 5693 5687 5684 5680 5676 5673 5668 5665 5660 5656 5647 5638 5632 5623 5615 5619 5632 5644 5654 5663 5670 5669 5673 5673 5673 5683 5687 5698 5701 5702 5702 5707 5711 5714 5714 5716 5718 5715 5718
5710 5704 5698 5691 5685 5681 5677 5676 5672 5668 5662 5656 5654 5649 5641 5631 5626 5618 5610 5611 5620 5633 5641 5652 5657 5664 5667 5671 5674 5680 5683 5694 5696 5700 5701 5705 5707 5708 5710 5712 5715 5714 5714
5701 5693 5687 5682 5678 5679 5676 5672 5670 5664 5654 5650 5648 5643 5637 5626 5620 5615 5607 5606 5611 5618 5629 5638 5643 5652 5659 5664 5670 5669 5675 5681 5685 5687 5691 5693 5694 5698 5702 5707 5710 5712 5716
5688 5679 5673 5671 5671 5669 5670 5666 5663 5659 5648 5646 5643 5635 5627 5621 5615 5609 5605 5609 5610 5611 5616 5623 5633 5645 5651 5654 5657 5661 5667 5671 5674 5674 5673 5677 5681 5687 5694 5698 5702 5704 5705
5674 5664 5649 5644 5651 5658 5661 5663 5659 5659 5644 5639 5634 5625 5621 5616 5610 5603 5598 5604 5603 5606 5609 5613 5618 5625 5634 5639 5646 5648 5650 5653 5655 5658 5661 5664 5670 5673 5676 5680 5684 5688 5685
5650 5645 5647 5641 5652 5649 5651 5650 5655 5642 5638 5630 5627 5615 5610 5607 5603 5593 5588 5594 5597 5598 5603 5609 5615 5617 5622 5627 5630 5633 5636 5638 5643 5642 5648 5652 5655 5658 5660 5661 5664 5667 5667
5645 5641 5637 5636 5654 5666 5653 5643 5634 5624 5627 5616 5612 5606 5607 5605 5600 5596 5594 5592 5597 5600 5599 5596 5604 5607 5615 5618 5622 5623 5623 5625 5628 5628 5636 5637 5637 5642 5645 5648 5648 5648 5651
5643 5648 5654 5645 5650 5650 5648 5643 5627 5618 5612 5613 5602 5594 5597 5603 5602 5598 5597 5594 5593 5596 5594 5593 5595 5601 5605 5610 5618 5620 5621 5622 5621 5622 5625 5625 5627 5629 5632 5637 5638 5634 5636
5648 5642 5651 5645 5641 5643 5643 5635 5630 5620 5615 5613 5603 5595 5599 5601 5601 5600 5597 5600 5597 5595 5592 5590 5595 5598 5601 5604 5611 5615 5619 5619 5620 5619 5619 5620 5621 5625 5626 5626 5624 5627 5628
5635 5633 5634 5632 5632 5632 5628 5633 5628 5622 5615 5601 5608 5596 5600 5599 5597 5599 5597 5594 5592 5591 5589 5588 5587 5589 5592 5595 5602 5608 5608 5610 5611 5613 5615 5615 5615 5615 5614 5617 5619 5620 5622
5619 5621 5617 5618 5614 5617 5615 5612 5612 5612 5607 5610 5603 5601 5605 5605 5601 5598 5594 5592 5589 5586 5585 5585 5586 5586 5587 5587 5590 5594 5596 5597 5599 5602 5605 5610 5611 5610 5611 5612 5613 5614 5617
5613 5617 5625 5619 5610 5600 5600 5603 5604 5592 5597 5598 5598 5599 5596 5599 5597 5595 5592 5589 5585 5583 5583 5583 5582 5583 5585 5582 5581 5580 5580 5581 5583 5587 5590 5596 5599 5600 5600 5602 5604 5607 5608
5608 5616 5620 5613 5609 5597 5600 5605 5593 5599 5602 5601 5595 5595 5595 5596 5592 5590 5587 5583 5581 5580 5579 5578 5577 5577 5574 5570 5567 5566 5566 5567 5568 5569 5572 5579 5583 5586 5587 5589 5593 5595 5593
5606 5605 5605 5604 5599 5596 5603 5604 5592 5595 5600 5600 5597 5597 5593 5589 5586 5582 5580 5578 5577 5576 5576 5574 5571 5569 5565 5559 5555 5551 5549 5549 5552 5553 5556 5562 5566 5570 5573 5575 5576 5578 5578
5598 5598 5597 5596 5593 5596 5597 5597 5596 5598 5599 5597 5593 5589 5585 5582 5579 5575 5571 5569 5569 5568 5567 5565 5564 5556 5553 5548 5543 5539 5536 5536 5540 5540 5542 5549 5555 5559 5562 5562 5562 5560 5564
5589 5586 5585 5584 5591 5599 5599 5594 5600 5599 5594 5588 5585 5580 5578 5574 5571 5566 5562 5560 5561 5560 5559 5557 5552 5545 5539 5536 5531 5529 5529 5530 5531 5532 5536 5539 5545 5549 5551 5550 5550 5551 5551
5587 5587 5589 5592 5595 5601 5599 5595 5590 5585 5581 5576 5572 5569 5567 5564 5560 5554 5551 5548 5548 5548 5547 5545 5541 5539 5533 5527 5523 5522 5521 5522 5523 5526 5528 5534 5539 5539 5533 5532 5532 5532 5532